Regional Weather Roundup
Issued by NWS Grand Forks, ND

Home | Current Version | Previous Version | Graphics & Text | Print | Product List | Glossary On
Versions: 1 2 3 4 5 6 7 8 9 10 11 12 13 14 15 16 17 18 19 20 21 22 23 24 25 26 27 28 29 30 31 32 33 34 35 36 37 38 39 40 41 42 43 44 45 46 47 48 49 50
000
ASUS43 KFGF 041110
RWRFGF
PRAIRIE TO PINES  WEATHER ROUNDUP
NATIONAL WEATHER SERVICE EASTERN NORTH DAKOTA/GRAND FORKS ND
500 AM CST WED MAR 04 2015

 **SATELLITE DATA USED TO AUGMENT SKY COVER AT AUTOMATED STATIONS**
 *****  WEATHER ACROSS EASTERN NORTH DAKOTA  *****

CITY           SKY/WX    TMP DP  RH WIND       PRES   REMARKS
GRAND FORKS    CLEAR     -7 -14  71 NW9       30.11R WCI -24
GRAND FRKS AFB CLEAR     -7 -15  67 NW10      30.10R WCI -25
GRAND FRKS NWS   N/A     -8 N/A N/A NW10        N/A  WCI -26
DEVILS LAKE    CLEAR     -9 -20  59 NW15      30.07R WCI -31
FARGO          CLEAR     -3 -11  68 W9        30.12R WCI -19
WAHPETON ARPT  FAIR      -4  -9  77 W10       30.13R WCI -21
$$

 ***** WEATHER ACROSS CENTRAL AND WESTERN NORTH DAKOTA  *****

CITY           SKY/WX    TMP DP  RH WIND       PRES   REMARKS
BISMARCK       CLEAR     -1 -10  65 NW15G23   30.16R WCI -21
MINOT          FAIR      -9 -18  64 W14       30.13R WCI -30
JAMESTOWN      PTCLDY    -6 -11  79 NW8       30.08R WCI -21
MINOT AFB      CLEAR    -10 -17  70 NW18      30.14R WCI -35
GARRISON         N/A     -9 -16  71 NW14      30.14R WCI -30
WILLISTON      CLEAR     -9 -15  75 NW9       30.21R WCI -26
DICKINSON      CLEAR     -4 -13  65 NW20      30.08R WCI -27
HETTINGER      CLEAR     -2  -9  72 NW13      30.10R WCI -20
$$

 *****  OTHER AIRPORT OBSERVATIONS IN OUR AREA  *****

CITY           SKY/WX    TMP DP  RH WIND       PRES   REMARKS
WALHALLA       NOT AVBL
GRAFTON AIRPOR NOT AVBL
VALLEY CITY AR CLOUDY    -2  -9  71 NW12      30.08R WCI -20
CANDO          NOT AVBL
CAVALIER APRT  FAIR      -8 -13  77 NW10      30.12R WCI -26
GWINNER        CLOUDY     1  -8  66 W9        30.12R WCI -14
SHEYENNE NWR     N/A     -6 -15  65 W7        29.95  WCI -20
ROLLA          PTSUNNY  -11 -18  70 NW21      30.05R WCI -37
 ***** THE ABOVE OBSERVATIONS ARE NON NWS ARE NOT QUALITY
       CONTROLLED AND MAY MIS-REPORT RAIN FOR SNOW...
$$

  *****  WEATHER ACROSS NORTHERN MINNESOTA  *****

CITY           SKY/WX    TMP DP  RH WIND       PRES   REMARKS
FLAG ISLAND    CLEAR    -15 -20  76 W10       29.98R WCI -35
WARROAD        CLEAR    -15 -20  76 W6        30.00R WCI -29
ROSEAU         CLEAR    -11 -18  70 NW7       30.02R WCI -26
HALLOCK        NOT AVBL
THF RVR FALLS  MOCLDY    -8 -11  84 W9        30.03R WCI -25
BAUDETTE       CLEAR    -14 -20  74 W5        29.96R WCI -26
WASKISH        PTCLDY    -9 -15  77 CALM      29.98R
CROOKSTON      CLEAR     -8 -13  77 NW13      30.10R WCI -28
$$
  *****  WEATHER ACROSS CENTRAL AND WEST MINNESOTA  *****

CITY           SKY/WX    TMP DP  RH WIND       PRES   REMARKS
FOSSTON        PTCLDY   -11 -17  77 W7        30.03R WCI -26
BEMIDJI        PTCLDY    -9 -13  80 W8        29.98R WCI -25
PARK RAPIDS    CLEAR    -11 -17  75 W9        29.99R WCI -29
ELBOW LAKE     FAIR      -6 -11  79 W9        30.09R WCI -23
WADENA         CLEAR    -11 -15  84 W8        30.03R WCI -28
DETROIT LAKES  CLEAR     -4  -8  84 W9        30.05R WCI -20
MOORHEAD       FAIR       0  -8  71 NW9       30.12R WCI -16
FERGUS FALLS   CLEAR     -8 -15  71 W8        30.14R WCI -23
MORRIS MN      FAIR      -8 -13  77 W6        30.10R WCI -21
STAPLES        CLEAR    -15 -17  91 W8        30.03R WCI -32
$$
  *****  WEATHER ELSEWHERE ACROSS MINNESOTA  *****

CITY           SKY/WX    TMP DP  RH WIND       PRES   REMARKS
DULUTH         CLEAR     -6 -13  71 W10       29.92R WCI -24
INTRNTL FALLS  CLEAR    -13 -17  82 W6        29.94R WCI -27
ELY            CLEAR     -9 -15  77 W7        29.89R WCI -24
CLOQUET        CLEAR     -6 -13  71 W9        29.96R WCI -22
WHEATON        MOCLDY    -8 -15  71 W7        30.15R WCI -22
BRAINERD       CLEAR     -8 -13  78 W9        30.03R WCI -25
HIBBING        CLEAR     -9 -15  75 W3        29.94R
ALEXANDRIA     CLEAR     -7 -12  79 W9        30.05R WCI -24
SAINT CLOUD    CLEAR     -3 -11  68 W9        30.08R WCI -19
MINNEAPOLIS    CLEAR      0  -8  69 W9        30.12R WCI -15
$$

  *****  WEATHER ACROSS SOUTH DAKOTA  *****

CITY           SKY/WX    TMP DP  RH WIND       PRES   REMARKS
SIOUX FALLS    PTCLDY     2  -3  80 SW5       30.15R WCI  -8
BROOKINGS      NOT AVBL
WATERTOWN      MOCLDY    -8 -14  74 SW6       30.07R WCI -21
HURON          PTCLDY    -5  -9  83 S5        30.15R WCI -16
SISSETON       NOT AVBL
ABERDEEN       LGT SNOW   3  -2  79 W3        30.14R
MITCHELL       CLEAR      1  -3  83 S5        30.17R WCI  -9
PIERRE         CLEAR      7  -2  66 NW17      30.14R WCI -12
MOBRIDGE       CLEAR      7  -4  60 NW18G26   30.09R WCI -12
RAPID CITY     CLEAR      3  -5  69 N12       30.09R WCI -13
$$

  *****  SOME WEATHER IN NEARBY STATES *****

CITY           SKY/WX    TMP DP  RH WIND       PRES   REMARKS
GLASGOW MT     PTCLDY    -3 -11  68 NW7       30.22R WCI -16
GREAT FALLS MT CLEAR      5  -2  72 SW9       30.15F WCI  -9
CHEYENNE WY    PTCLDY     2  -4  76 W3        29.96R
SCOTTSBLUFF NE MOCLDY     8   4  83 W7        30.11R WCI  -3
OMAHA NE       PTCLDY    15   7  70 N7        30.22R WCI   5
DES MOINES IA  PTCLDY    14   0  53 N12       30.19R WCI   0
DAVENPORT IA   CLEAR      9   0  67 NW12      30.11R WCI  -6
CHICAGO IL     MOCLDY    20  14  77 W14       29.97R WCI   7
EAU CLAIRE WI  CLEAR      1  -8  66 W12       30.05R WCI -16
LA CROSSE WI   PTCLDY     8  -1  66 NW13      30.10R WCI  -8
$$

  *****  SOME NATIONAL WEATHER *****

CITY           SKY/WX    TMP DP  RH WIND       PRES   REMARKS
LA GUARDIA NY  LGT RAIN  37  32  82 SW8       29.80R
RALEIGH NC     FOG       42  40  92 SW8       30.01R VSB 1/8
ATLANTA GA     FOG       53  52  96 S8        30.03S VSB<1/4
NEW ORLEANS LA PTCLDY    67  64  90 SE5       29.97R
OKLAHOMA CITY  CLOUDY    36  27  69 N21G26    29.97R
ALBUQUERQUE NM CLEAR     32  26  78 CALM      29.88S
SALT LAKE CITY PTCLDY    28  21  75 SE6       30.05S WCI  22
LOS ANGELES CA CLEAR     51  44  77 NE3       29.98F
BOISE ID       CLEAR     22  14  71 CALM      30.17R
SEATTLE WA     PTCLDY    34  23  64 SE5       30.27S
$$

*** WEATHER ACROSS MANITOBA...SASKATCHEWAN AND ONTARIO ***
                ***ONTARIO***

CITY           SKY/WX    TMP DP  RH WIND       PRES   REMARKS
GERALDTON      NOT AVBL
THUNDER BAY    NOT AVBL
SIOUX LOOKOUT  NOT AVBL
TORONTO        NOT AVBL
BIG TROUT LK   NOT AVBL
PICKLE LAKE    NOT AVBL
DRYDEN         NOT AVBL
KENORA         NOT AVBL
$$
                *** MANITOBA***

CITY           SKY/WX    TMP DP  RH WIND       PRES   REMARKS
BRANDON        NOT AVBL
DAUPHIN        MOCLDY   -13 -18  77 W10       30.16R HAZE    WCI -32
ISLAND LAKE    NOT AVBL
PILOT MOUND    NOT AVBL
THE PAS        NOT AVBL
THOMPSON       NOT AVBL
WINNIPEG       NOT AVBL
$$
                ***SASKATCHEWAN***

CITY           SKY/WX    TMP DP  RH WIND       PRES   REMARKS
ESTEVAN        NOT AVBL
KINDERSLEY     NOT AVBL
LLOYDMINSTER   NOT AVBL
PRINCE ALBERT  NOT AVBL
REGINA         NOT AVBL
YORKTON        NOT AVBL
N. BATTLEFORD  NOT AVBL
LA RONGE       NOT AVBL
SASKATOON      NOT AVBL
SWIFT CURRENT  NOT AVBL
$$
NOTE: THESE ARE AUTOMATED STATIONS WITH LIMITED QUALITY CONTROL
      "FAIR" INDICATES FEW OR NO CLOUDS BELOW 12,000 FEET WITH NO
      SIGNIFICANT WEATHER AND/OR OBSTRUCTIONS TO VISIBILITY.
      SKY/WX - SKY CONDITION AND SIGNIFICANT WEATHER.
      TMP - AIR TEMPERATURE.    DP   - DEWPOINT TEMPERATURE.
      RH  - RELATIVE HUMIDITY.  PRES - PRESSURE.
      HX  - HEAT INDEX.         WCI  - WIND CHILL INDEX.
$


USA.gov is the U.S. government's official web portal to all federal, state and local government web resources and services.